| time (UTC) | temp F | wind direction | speed MPH | gust MPH | rain 1hr in | rain 24hr in | rain mn in | humidity % | barometer mb |
| 20260507024541 | 46 | 355 | 0.0 | 0.0 | 0.00 | 0.00 | 0.00 | 50 | 1012.8 |
| 20260507023036 | 46 | 355 | 0.0 | 0.0 | 0.00 | 0.00 | 0.00 | 48 | 1012.6 |
| 20260507021532 | 47 | 5 | 0.0 | 0.0 | 0.00 | 0.00 | 0.00 | 47 | 1012.3 |
| 20260507020039 | 47 | 5 | 0.0 | 0.0 | 0.00 | 0.00 | 0.00 | 46 | 1012.1 |
| 20260507014523 | 48 | 348 | 0.0 | 0.0 | 0.00 | 0.00 | 0.00 | 44 | 1012.1 |
| 20260507013038 | 48 | 360 | 1.0 | 0.0 | 0.00 | 0.00 | 0.00 | 44 | 1012.0 |
| 20260507011515 | 49 | 355 | 1.0 | 0.0 | 0.00 | 0.00 | 0.00 | 43 | 1012.0 |
| 20260507010010 | 49 | 320 | 2.0 | 0.0 | 0.00 | 0.00 | 0.00 | 42 | 1011.9 |
| 20260507004506 | 50 | 348 | 2.0 | 0.0 | 0.00 | 0.00 | 0.00 | 41 | 1011.9 |
| 20260507003001 | 51 | 319 | 2.0 | 0.0 | 0.00 | 0.00 | 0.00 | 41 | 1011.9 |
| 20260507001558 | 52 | 331 | 2.0 | 0.0 | 0.00 | 0.00 | 0.00 | 40 | 1011.7 |
| 20260507000054 | 52 | 351 | 2.0 | 0.0 | 0.00 | 0.00 | 0.00 | 41 | 1011.4 |
| 20260506234549 | 52 | 344 | 2.0 | 0.0 | 0.00 | 0.00 | 0.00 | 40 | 1011.3 |
| 20260506233057 | 53 | 360 | 2.0 | 0.0 | 0.00 | 0.00 | 0.00 | 40 | 1011.1 |
| 20260506231541 | 54 | 346 | 2.0 | 0.0 | 0.00 | 0.00 | 0.00 | 39 | 1011.1 |
| 20260506230035 | 54 | 23 | 1.0 | 0.0 | 0.00 | 0.00 | 0.00 | 40 | 1010.8 |
| 20260506224531 | 54 | 330 | 2.0 | 0.0 | 0.00 | 0.00 | 0.00 | 39 | 1010.8 |
| 20260506223026 | 54 | 316 | 2.0 | 0.0 | 0.00 | 0.00 | 0.00 | 39 | 1010.7 |
| 20260506221522 | 55 | 314 | 2.0 | 0.0 | 0.00 | 0.00 | 0.00 | 38 | 1010.7 |
| 20260506220024 | 55 | 342 | 2.0 | 0.0 | 0.00 | 0.00 | 0.00 | 39 | 1010.5 |
| 20260506214513 | 55 | 328 | 2.0 | 0.0 | 0.00 | 0.00 | 0.00 | 38 | 1010.4 |
| 20260506213009 | 56 | 314 | 2.0 | 0.0 | 0.00 | 0.00 | 0.00 | 39 | 1010.3 |
| 20260506211508 | 57 | 324 | 2.0 | 0.0 | 0.00 | 0.00 | 0.00 | 36 | 1010.2 |
| 20260506210100 | 57 | 340 | 1.0 | 0.0 | 0.00 | 0.00 | 0.00 | 37 | 1010.2 |
| 20260506204557 | 58 | 355 | 2.0 | 0.0 | 0.00 | 0.00 | 0.00 | 35 | 1010.3 |
| 20260506203052 | 60 | 322 | 3.0 | 0.0 | 0.00 | 0.00 | 0.00 | 31 | 1010.3 |
| 20260506201548 | 61 | 313 | 2.0 | 0.0 | 0.00 | 0.00 | 0.00 | 31 | 1010.4 |
| 20260506200046 | 60 | 330 | 2.0 | 0.0 | 0.00 | 0.00 | 0.00 | 31 | 1010.6 |
| 20260506194545 | 59 | 274 | 2.0 | 0.0 | 0.00 | 0.00 | 0.00 | 33 | 1010.6 |
| 20260506193034 | 58 | 265 | 2.0 | 0.0 | 0.00 | 0.00 | 0.00 | 35 | 1010.8 |
| 20260506191531 | 56 | 232 | 1.0 | 0.0 | 0.00 | 0.00 | 0.00 | 37 | 1010.9 |
| 20260506190026 | 56 | 338 | 1.0 | 0.0 | 0.00 | 0.00 | 0.00 | 37 | 1010.8 |
| 20260506184521 | 56 | 342 | 1.0 | 0.0 | 0.00 | 0.00 | 0.00 | 38 | 1010.9 |
| 20260506183016 | 56 | 334 | 1.0 | 0.0 | 0.00 | 0.00 | 0.00 | 37 | 1010.8 |
| 20260506181517 | 55 | 334 | 2.0 | 0.0 | 0.00 | 0.00 | 0.00 | 37 | 1010.9 |
| 20260506180016 | 56 | 15 | 2.0 | 0.0 | 0.00 | 0.00 | 0.00 | 37 | 1010.9 |
| 20260506174503 | 55 | 342 | 2.0 | 0.0 | 0.00 | 0.00 | 0.00 | 39 | 1010.9 |
| 20260506173112 | 55 | 334 | 1.0 | 0.0 | 0.00 | 0.00 | 0.00 | 38 | 1011.1 |
| 20260506171603 | 55 | 338 | 1.0 | 0.0 | 0.00 | 0.00 | 0.00 | 38 | 1011.1 |
| 20260506170059 | 55 | 360 | 1.0 | 0.0 | 0.00 | 0.00 | 0.00 | 37 | 1011.2 |
| 20260506164605 | 56 | 319 | 1.0 | 0.0 | 0.00 | 0.00 | 0.00 | 37 | 1011.2 |
| 20260506163044 | 56 | 312 | 1.0 | 0.0 | 0.00 | 0.00 | 0.00 | 36 | 1011.0 |
| 20260506161538 | 56 | 328 | 1.0 | 0.0 | 0.00 | 0.00 | 0.00 | 37 | 1011.2 |
| 20260506160034 | 55 | 329 | 2.0 | 0.0 | 0.00 | 0.00 | 0.00 | 39 | 1011.2 |
| 20260506154529 | 54 | 355 | 1.0 | 0.0 | 0.00 | 0.00 | 0.00 | 39 | 1011.1 |
| 20260506153024 | 53 | 334 | 1.0 | 0.0 | 0.00 | 0.00 | 0.00 | 38 | 1011.1 |
| 20260506151521 | 53 | 263 | 1.0 | 0.0 | 0.00 | 0.00 | 0.00 | 39 | 1011.3 |
| 20260506150017 | 53 | 342 | 1.0 | 0.0 | 0.00 | 0.00 | 0.00 | 39 | 1011.3 |
| 20260506144511 | 52 | 329 | 1.0 | 0.0 | 0.00 | 0.00 | 0.00 | 41 | 1011.3 |
| 20260506143007 | 52 | 313 | 1.0 | 0.0 | 0.00 | 0.00 | 0.00 | 40 | 1011.3 |
| 20260506141503 | 50 | 317 | 0.0 | 0.0 | 0.00 | 0.00 | 0.00 | 43 | 1011.3 |
| 20260506140059 | 49 | 65 | 0.0 | 0.0 | 0.00 | 0.00 | 0.00 | 42 | 1011.2 |
| 20260506134554 | 48 | 76 | 0.0 | 0.0 | 0.00 | 0.00 | 0.00 | 42 | 1011.0 |
| 20260506133053 | 47 | 76 | 0.0 | 0.0 | 0.00 | 0.00 | 0.00 | 41 | 1010.7 |
| 20260506131545 | 46 | 76 | 0.0 | 0.0 | 0.00 | 0.00 | 0.00 | 38 | 1010.6 |
| 20260506130042 | 44 | 76 | 0.0 | 0.0 | 0.00 | 0.00 | 0.00 | 29 | 1010.6 |
| 20260506124540 | 43 | 76 | 0.0 | 0.0 | 0.00 | 0.00 | 0.00 | 20 | 1010.4 |
| 20260506123040 | 42 | 76 | 0.0 | 0.0 | 0.00 | 0.00 | 0.00 | 100 | 1010.2 |
| 20260506121528 | 41 | 76 | 0.0 | 0.0 | 0.00 | 0.00 | 0.00 | 100 | 1010.0 |
| 20260506120035 | 40 | 76 | 0.0 | 0.0 | 0.00 | 0.00 | 0.00 | 7 | 1009.9 |
| 20260506114524 | 40 | 76 | 0.0 | 0.0 | 0.00 | 0.00 | 0.00 | 17 | 1009.8 |
| 20260506113016 | 40 | 76 | 0.0 | 0.0 | 0.00 | 0.00 | 0.00 | 25 | 1009.6 |
| 20260506111513 | 40 | 76 | 0.0 | 0.0 | 0.00 | 0.00 | 0.00 | 30 | 1009.6 |
| 20260506110010 | 40 | 76 | 0.0 | 0.0 | 0.00 | 0.00 | 0.00 | 36 | 1009.6 |
| 20260506104506 | 41 | 76 | 0.0 | 0.0 | 0.00 | 0.00 | 0.00 | 41 | 1009.3 |
| 20260506103006 | 41 | 76 | 0.0 | 0.0 | 0.00 | 0.00 | 0.00 | 43 | 1008.8 |
| 20260506101502 | 41 | 76 | 0.0 | 0.0 | 0.00 | 0.00 | 0.00 | 45 | 1008.6 |
| 20260506100100 | 42 | 76 | 0.0 | 0.0 | 0.00 | 0.00 | 0.00 | 47 | 1008.5 |
| 20260506094558 | 42 | 76 | 0.0 | 0.0 | 0.00 | 0.00 | 0.00 | 48 | 1008.6 |
| 20260506093057 | 42 | 76 | 0.0 | 0.0 | 0.00 | 0.00 | 0.00 | 50 | 1008.6 |
| 20260506091556 | 43 | 76 | 0.0 | 0.0 | 0.00 | 0.00 | 0.00 | 51 | 1008.5 |
| 20260506090053 | 43 | 76 | 0.0 | 0.0 | 0.00 | 0.00 | 0.00 | 54 | 1008.5 |
| 20260506084550 | 44 | 76 | 0.0 | 0.0 | 0.00 | 0.00 | 0.00 | 55 | 1008.6 |
| 20260506083049 | 45 | 76 | 0.0 | 0.0 | 0.00 | 0.00 | 0.00 | 56 | 1008.3 |
| 20260506081550 | 45 | 76 | 0.0 | 0.0 | 0.00 | 0.00 | 0.00 | 55 | 1008.3 |
| 20260506073040 | 46 | 76 | 0.0 | 0.0 | 0.00 | 0.00 | 0.00 | 53 | 1008.1 |
| 20260506071548 | 47 | 76 | 0.0 | 0.0 | 0.00 | 0.00 | 0.00 | 51 | 1007.9 |
| 20260506061533 | 49 | 69 | 0.0 | 0.0 | 0.00 | 0.00 | 0.00 | 46 | 1007.9 |
| 20260506044518 | 51 | 74 | 0.0 | 0.0 | 0.00 | 0.00 | 0.08 | 43 | 1007.1 |
| 20260506043013 | 51 | 355 | 0.0 | 0.0 | 0.00 | 0.00 | 0.08 | 43 | 1007.5 |
| 20260506041502 | 51 | 40 | 0.0 | 0.0 | 0.00 | 0.00 | 0.08 | 44 | 1007.5 |
| 20260506040101 | 51 | 41 | 0.0 | 0.0 | 0.00 | 0.00 | 0.08 | 45 | 1007.4 |
| 20260506034555 | 51 | 348 | 0.0 | 0.0 | 0.00 | 0.00 | 0.08 | 49 | 1007.1 |
| 20260506033051 | 51 | 349 | 0.0 | 0.0 | 0.00 | 0.00 | 0.08 | 50 | 1007.1 |
| 20260506031557 | 51 | 349 | 0.0 | 0.0 | 0.00 | 0.00 | 0.08 | 50 | 1006.6 |
| 20260506030057 | 52 | 349 | 0.0 | 0.0 | 0.00 | 0.00 | 0.08 | 50 | 1006.7 |